Погода в Большом Зерентуе

Россия / Забайкальский край     51°21′52″N   119°13′11″E
темп.,
°C
ветер,
м/с
пор.,
м/с
влажн.,
%
обл.,
%
осадки,
мм/ч
давл.,
гПа
погр.,
м
17 мая, пн
пн1700:00+10з41061100 0.0 1002208
03:00+8зсз4866100 0.0 1003184
06:00+7зсз227744 0.0 100325
09:00+12зсз124723 0.0 1003904
12:00+16зюз573481 0.0 10002225
15:00+10зсз51080100 1.6 1000871
18:00+11з697177 0.8 9991064
21:00+9з22775 0.9 99912
18 мая, вт
вт1800:00+7зсз228699 0.0 100015
03:00+5сз228817 0.0 100120
06:00+4сз228384 0.0 100433
09:00+9сз35349 0.0 10041689
12:00+12зсз4727100 0.0 10032561
15:00+14з4824100 0.0 10013135
18:00+14зсз61027100 0.0 10003113
21:00+9сз22313 0.0 100219
19 мая, ср
ср1900:00+5ссз224492 0.0 100410
03:00+4сз1148100 0.0 100510
06:00+4ю115297 0.0 100410
09:00+10ю3537100 0.0 1002477
12:00+16ююз91234100 0.0 9962007
15:00+17ююз101941100 0.0 9912217
18:00+12зсз61278100 1.8 9941008
21:00+7сз511804 1.8 999766
20 мая, чт
чт2000:00+3ссз378511 0.0 1003190
03:00+2з118821 0.0 100410
06:00+2сз1185100 0.0 100514
09:00+7ю2259100 0.0 1005375
12:00+13ююв2338100 0.0 10041368
15:00+15ююв4634100 0.0 10032108
18:00+14з3548100 0.0 1004588
21:00+10ссв485695 0.0 1006256
21 мая, пт
пт2100:00+8св41061100 0.0 1007366
03:00+7св2266100 0.0 100634
06:00+7св237497 0.1 1005110
09:00+12вюв810555 0.1 1002795
12:00+20ююв710437 0.0 9981300
15:00+26ю5931100 0.0 9942158
18:00+23юз71434100 0.0 993641
21:00+15ююв346486 0.8 99455